This is the latest recevied weather packets stored in our database for station/object KD6VEX-1. If no packets are shown the sender has not sent any weather packets the latest 10 day(s).
| Time | Temp. | Humidity | Pressure | Rain* | Wind** | Luminosity | Snow |
|---|---|---|---|---|---|---|---|
| 1777921692 | 20.56° C | 44% | 1014.9 hPa | 0 mm | - | - | - |
| 1777921202 | 20.56° C | 43% | 1015 hPa | 0 mm | - | - | - |
| 1777920902 | 20.56° C | 43% | 1014.9 hPa | 0 mm | - | - | - |
| 1777920601 | 20.56° C | 42% | 1014.9 hPa | 0 mm | - | - | - |
| 1777920302 | 20.56° C | 43% | 1015 hPa | 0 mm | - | - | - |
| 1777920002 | 20.56° C | 42% | 1015 hPa | 0 mm | - | - | - |
| 1777919702 | 21.11° C | 40% | 1015.1 hPa | 0 mm | - | - | - |
| 1777919401 | 21.11° C | 41% | 1015.1 hPa | 0 mm | - | - | - |
| 1777919102 | 20.56° C | 40% | 1015.2 hPa | 0 mm | - | - | - |
| 1777918801 | 20° C | 42% | 1015.3 hPa | 0 mm | - | - | - |
| 1777918501 | 20° C | 43% | 1015.3 hPa | 0 mm | - | - | - |
| 1777918201 | 20.56° C | 42% | 1015.4 hPa | 0 mm | - | - | - |
| 1777917902 | 20.56° C | 46% | 1015.3 hPa | 0 mm | - | - | - |
| 1777917601 | 20° C | 48% | 1015.4 hPa | 0 mm | - | - | - |
| 1777917302 | 19.44° C | 47% | 1015.4 hPa | 0 mm | - | - | - |
| 1777917001 | 19.44° C | 49% | 1015.4 hPa | 0 mm | - | - | - |
| 1777916701 | 18.89° C | 50% | 1015.5 hPa | 0 mm | - | - | - |
| 1777916401 | 18.89° C | 50% | 1015.4 hPa | 0 mm | - | - | - |
| 1777916102 | 18.33° C | 53% | 1015.4 hPa | 0 mm | - | - | - |
| 1777915803 | 17.78° C | 55% | 1015.4 hPa | 0 mm | - | - | - |
| 1777915501 | 17.78° C | 57% | 1015.4 hPa | 0 mm | - | - | - |
| 1777915203 | 17.22° C | 57% | 1015.5 hPa | 0 mm | - | - | - |
| 1777914901 | 17.22° C | 59% | 1015.4 hPa | 0 mm | - | - | - |
| 1777914601 | 17.22° C | 60% | 1015.4 hPa | 0 mm | - | - | - |
| 1777914302 | 17.22° C | 60% | 1015.5 hPa | 0 mm | - | - | - |
* Rain latest hour (hover to see other rain measurements)
** Current wind speed in m/s (hover to see current wind gust speed)